Location: Borojevi?i
(45.0486°N, 16.2297°E)
Time: 04:49:53
(UTC+00:00)

ATLAS 3B R/B - Pass Details

Date: 08 August 2020
Orbit: 1016 x 1179 km, 63.8° (Epoch: 22 September)

Event Time Altitude Azimuth Distance (km) Brightness Sun altitude
Exits shadow 22:21:15 76° 201° (SSW) 1,050 2.4 -28.5°
Maximum altitude 22:21:50 86° 125° (SE) 1,025 2.4 -28.5°
Drops below altitude 10° 22:28:29 10° 38° (NE) 2,833 5.4 -28.7°
Sets 22:31:07 0° 38° (NE) 3,804 6.2 -28.8°
